Mason, MI

5:27 AM EDT on October 19, 2017 (GMT -0400)
Mason Jewett

Weather History for KTEW - May, 2013

Change the Weather History Date:

Monday, May 13, 2013

  Actual Average (KLAN) Record (KLAN)
Temperature  
Mean Temperature 42 °F -  
Max Temperature 54 °F 67 °F 91 °F (1879)
Min Temperature 30 °F 42 °F 25 °F (1996)
Degree Days  
Heating Degree Days 23    
Moisture  
Dew Point 24 °F    
Average Humidity 53    
Maximum Humidity 85    
Minimum Humidity 25    
Precipitation  
Precipitation 0.00 in - - ()
Sea Level Pressure  
Sea Level Pressure 30.12 in    
Wind  
Wind Speed 3 mph (WNW)    
Max Wind Speed 13 mph    
Max Gust Speed 32 mph    
Visibility 10 miles    
Events      
Averages and records for this station are not official NWS values.
T = Trace of Precipitation, MM = Missing Value Source: NWS Daily Summary

Daily Weather History Graph

Daily Weather History Graph

Search for Another Location

Airport or City:

Trip Planner

Search our weather history database for the weather conditions in past years. The results will help you decide how hot, cold, wet, or windy it might be!

Date:

Astronomy

May. 13, 2013 Rise Set
Actual Time 6:17 AM EDT 8:51 PM EDT
Civil Twilight 5:45 AM EDT 9:23 PM EDT
Nautical Twilight 5:05 AM EDT 10:03 PM EDT
Astronomical Twilight 4:20 AM EDT 10:49 PM EDT
Moon 9:02 AM EDT (5/13) 11:59 PM EDT (5/13)
Length of Visible Light 15h 38m
Length of Day
14h 33m
Waxing Crescent, 12% of the Moon is Illuminated
May 13
Waxing Crescent
May 18
First Quarter
May 25
Full
May 31
Last Quarter
Jun 8
New

Hourly Weather History & Observations

Time (EDT) Temp. Windchill Dew Point Humidity Pressure Visibility Wind Dir Wind Speed Gust Speed Precip Events Conditions
12:15 AM 32.9 °F - 27.7 °F 81% 30.09 in 10.0 mi Calm Calm - N/A   Clear
12:34 AM 32.0 °F - 28.0 °F 85% 30.09 in 10.0 mi Calm Calm - N/A   Clear
12:54 AM 32.0 °F - 27.1 °F 82% 30.10 in 10.0 mi Calm Calm - N/A   Scattered Clouds
1:13 AM 32.4 °F - 27.9 °F 83% 30.10 in 10.0 mi Calm Calm - N/A   Mostly Cloudy
1:34 AM 34.0 °F - 27.5 °F 77% 30.10 in 10.0 mi Calm Calm - N/A   Mostly Cloudy
1:54 AM 32.7 °F - 28.0 °F 83% 30.10 in 10.0 mi Calm Calm - N/A   Scattered Clouds
2:13 AM 32.9 °F - 27.5 °F 81% 30.10 in 10.0 mi Calm Calm - N/A   Clear
2:34 AM 31.3 °F - 27.0 °F 84% 30.10 in 10.0 mi Calm Calm - N/A   Clear
2:53 AM 32.0 °F - 27.3 °F 83% 30.10 in 10.0 mi Calm Calm - N/A   Clear
3:14 AM 32.0 °F - 26.6 °F 80% 30.10 in 10.0 mi Calm Calm - N/A   Clear
3:34 AM 32.0 °F - 27.1 °F 82% 30.10 in 10.0 mi Calm Calm - N/A   Clear
3:53 AM 32.0 °F 28.7 °F 27.0 °F 82% 30.10 in 10.0 mi West 3.5 mph - N/A   Clear
4:14 AM 31.8 °F 28.5 °F 26.4 °F 80% 30.10 in 10.0 mi West 3.5 mph - N/A   Clear
4:34 AM 31.3 °F 26.6 °F 26.4 °F 82% 30.10 in 10.0 mi West 4.6 mph - N/A   Clear
4:53 AM 31.6 °F 27.0 °F 26.4 °F 81% 30.10 in 10.0 mi West 4.6 mph - N/A   Clear
5:14 AM 31.6 °F 27.0 °F 26.4 °F 81% 30.10 in 10.0 mi West 4.6 mph - N/A   Clear
5:34 AM 31.6 °F 28.3 °F 26.6 °F 82% 30.10 in 10.0 mi West 3.5 mph - N/A   Clear
5:54 AM 31.1 °F 27.7 °F 26.4 °F 83% 30.10 in 10.0 mi West 3.5 mph - N/A   Clear
6:14 AM 30.7 °F 26.0 °F 26.1 °F 83% 30.11 in 10.0 mi West 4.6 mph - N/A   Clear
6:34 AM 30.7 °F 27.3 °F 26.4 °F 84% 30.11 in 10.0 mi WNW 3.5 mph - N/A   Clear
6:54 AM 31.6 °F 28.3 °F 27.0 °F 83% 30.11 in 10.0 mi West 3.5 mph - N/A   Clear
7:14 AM 32.4 °F 26.9 °F 27.3 °F 82% 30.12 in 10.0 mi West 5.8 mph - N/A   Clear
7:33 AM 33.3 °F 28.9 °F 28.0 °F 81% 30.13 in 10.0 mi West 4.6 mph - N/A   Clear
7:54 AM 34.7 °F 29.6 °F 28.2 °F 77% 30.13 in 10.0 mi West 5.8 mph - N/A   Clear
8:14 AM 36.9 °F 33.1 °F 27.7 °F 69% 30.14 in 10.0 mi WNW 4.6 mph - N/A   Clear
8:33 AM 38.5 °F 33.4 °F 25.5 °F 60% 30.15 in 10.0 mi NW 6.9 mph - N/A   Clear
8:54 AM 40.1 °F 33.6 °F 23.9 °F 52% 30.16 in 10.0 mi WNW 10.4 mph - N/A   Clear
9:14 AM 41.2 °F 34.1 °F 23.7 °F 50% 30.16 in 10.0 mi WNW 12.7 mph 16.1 mph N/A   Clear
9:33 AM 41.7 °F 35.2 °F 22.1 °F 46% 30.16 in 10.0 mi NW 11.5 mph 18.4 mph N/A   Clear
9:54 AM 42.8 °F 37.0 °F 22.1 °F 44% 30.16 in 10.0 mi NW 10.4 mph 16.1 mph N/A   Clear
10:14 AM 43.7 °F 38.1 °F 21.7 °F 42% 30.16 in 10.0 mi NNW 10.4 mph - N/A   Clear
10:34 AM 43.7 °F 37.7 °F 22.1 °F 42% 30.16 in 10.0 mi NNW 11.5 mph 16.1 mph N/A   Clear
10:54 AM 44.8 °F 39.9 °F 22.5 °F 41% 30.17 in 10.0 mi NW 9.2 mph - N/A   Clear
11:14 AM 45.3 °F 42.3 °F 21.9 °F 40% 30.17 in 10.0 mi NW 5.8 mph - N/A   Clear
11:34 AM 45.7 °F 39.8 °F 21.7 °F 39% 30.17 in 10.0 mi NW 12.7 mph 32.2 mph N/A   Scattered Clouds
11:54 AM 46.8 °F - 22.6 °F 39% 30.17 in 10.0 mi NNW 5.8 mph - N/A   Clear
12:13 PM 46.6 °F - 22.1 °F 38% 30.17 in 10.0 mi North 6.9 mph - N/A   Clear
12:34 PM 47.7 °F - 23.4 °F 38% 30.17 in 10.0 mi West 5.8 mph - N/A   Scattered Clouds
12:54 PM 48.9 °F - 24.4 °F 38% 30.17 in 10.0 mi NW 8.1 mph - N/A   Mostly Cloudy
1:13 PM 49.8 °F - 23.4 °F 36% 30.17 in 10.0 mi West 6.9 mph - N/A   Scattered Clouds
1:34 PM 49.8 °F - 23.4 °F 36% 30.16 in 10.0 mi WSW 5.8 mph - N/A   Mostly Cloudy
1:54 PM 48.4 °F - 21.6 °F 35% 30.16 in 10.0 mi West 6.9 mph - N/A   Scattered Clouds
2:14 PM 50.7 °F - 23.5 °F 35% 30.16 in 10.0 mi West 4.6 mph - N/A   Scattered Clouds
2:34 PM 51.1 °F - 22.1 °F 32% 30.15 in 10.0 mi WNW 8.1 mph - N/A   Scattered Clouds
2:55 PM 50.7 °F - 20.3 °F 30% 30.15 in 10.0 mi West 10.4 mph - N/A   Scattered Clouds
3:14 PM 51.6 °F - 20.5 °F 29% 30.15 in 10.0 mi North 8.1 mph - N/A   Scattered Clouds
3:34 PM 52.5 °F - 20.5 °F 29% 30.15 in 10.0 mi Calm Calm - N/A   Scattered Clouds
4:34 PM 53.8 °F - 18.7 °F 25% 30.12 in 10.0 mi WNW 6.9 mph - N/A   Clear
4:54 PM 53.4 °F - 18.9 °F 26% 30.12 in 10.0 mi Calm Calm - N/A   Clear
5:14 PM 53.2 °F - 18.0 °F 25% 30.11 in 10.0 mi West 5.8 mph - N/A   Clear
5:34 PM 54.1 °F - 19.8 °F 26% 30.11 in 10.0 mi West 3.5 mph - N/A   Clear
5:54 PM 54.3 °F - 21.2 °F 28% 30.11 in 10.0 mi WNW 12.7 mph - N/A   Clear
6:14 PM 53.6 °F - 19.9 °F 27% 30.10 in 10.0 mi West 10.4 mph - N/A   Clear
6:35 PM 53.8 °F - 21.2 °F 28% 30.10 in 10.0 mi NW 6.9 mph - N/A   Clear
6:54 PM 54.1 °F - 21.7 °F 28% 30.10 in 10.0 mi NW 3.5 mph - N/A   Clear
7:35 PM 54.0 °F - 19.8 °F 26% 30.10 in 10.0 mi West 8.1 mph - N/A   Clear
8:14 PM 52.5 °F - 19.0 °F 27% 30.11 in 10.0 mi West 8.1 mph - N/A   Clear
8:34 PM 50.9 °F - 19.4 °F 29% 30.11 in 10.0 mi Calm Calm - N/A   Clear
8:54 PM 49.6 °F - 20.1 °F 31% 30.11 in 10.0 mi Calm Calm - N/A   Clear
9:14 PM 48.9 °F - 20.8 °F 33% 30.10 in 10.0 mi Calm Calm - N/A   Clear
9:34 PM 48.4 °F - 22.1 °F 36% 30.10 in 10.0 mi Calm Calm - N/A   Clear
9:54 PM 48.2 °F - 22.1 °F 36% 30.10 in 10.0 mi Calm Calm - N/A   Clear
10:14 PM 46.9 °F - 25.3 °F 43% 30.10 in 10.0 mi Calm Calm - N/A   Clear
10:34 PM 46.4 °F - 27.0 °F 47% 30.10 in 10.0 mi Calm Calm - N/A   Clear
10:54 PM 45.9 °F - 28.2 °F 50% 30.10 in 10.0 mi Calm Calm - N/A   Clear
11:15 PM 45.7 °F - 28.8 °F 52% 30.10 in 10.0 mi Calm Calm - N/A   Clear
11:34 PM 45.3 °F - 29.1 °F 53% 30.09 in 10.0 mi Calm Calm - N/A   Clear
11:54 PM 45.3 °F - 27.7 °F 50% 30.08 in 10.0 mi Calm Calm - N/A   Clear